Time,TemperatureF,DewpointF,PressureIn,WindDirection,WindDirectionDegrees,WindSpeedMPH,WindSpeedGustMPH,Humidity,HourlyPrecipIn,Conditions,Clouds,dailyrainin,SoftwareType,DateUTC
2013-05-05 00:01:00,56.0,49.0,29.72,NNW,347,0.0,0.0,77,0.00,,,0.00,,2013-05-05 07:01:00,
2013-05-05 00:11:00,56.0,49.0,29.72,NNW,347,0.0,0.0,77,0.00,,,0.00,,2013-05-05 07:11:00,
2013-05-05 00:21:00,56.0,49.0,29.72,NNW,347,0.0,0.0,77,0.00,,,0.00,,2013-05-05 07:21:00,
2013-05-05 00:31:00,55.0,48.0,29.72,NNW,347,0.0,0.0,76,0.00,,,0.00,,2013-05-05 07:31:00,
2013-05-05 00:42:00,55.0,48.0,29.72,NNW,347,0.0,0.0,76,0.00,,,0.00,,2013-05-05 07:42:00,
2013-05-05 00:52:00,55.0,48.0,29.72,NNW,347,0.0,0.0,76,0.00,,,0.00,,2013-05-05 07:52:00,
2013-05-05 01:02:00,55.0,48.0,29.72,NNW,347,0.0,0.0,77,0.00,,,0.00,,2013-05-05 08:02:00,
2013-05-05 01:11:00,55.0,48.0,29.72,NNW,347,0.0,0.0,77,0.00,,,0.00,,2013-05-05 08:11:00,
2013-05-05 01:21:00,55.0,48.0,29.73,NNW,347,0.0,0.0,77,0.00,,,0.00,,2013-05-05 08:21:00,
2013-05-05 01:31:00,55.0,48.0,29.73,NNW,347,0.0,0.0,77,0.00,,,0.00,,2013-05-05 08:31:00,
2013-05-05 01:42:00,55.0,48.0,29.73,NNW,347,0.0,0.0,77,0.00,,,0.00,,2013-05-05 08:42:00,
2013-05-05 01:53:00,55.0,48.0,29.73,NNW,347,0.0,0.0,78,0.00,,,0.00,,2013-05-05 08:53:00,
2013-05-05 02:01:00,55.0,48.0,29.73,NNW,347,0.0,0.0,78,0.00,,,0.00,,2013-05-05 09:01:00,
2013-05-05 02:11:00,55.0,48.0,29.73,NNW,347,0.0,0.0,78,0.00,,,0.00,,2013-05-05 09:11:00,
2013-05-05 02:21:00,55.0,48.0,29.73,NNW,347,0.0,0.0,78,0.00,,,0.00,,2013-05-05 09:21:00,
2013-05-05 02:32:00,54.0,47.0,29.72,NNW,347,0.0,0.0,77,0.00,,,0.00,,2013-05-05 09:32:00,
2013-05-05 02:42:00,54.0,47.0,29.72,NNW,347,0.0,0.0,77,0.00,,,0.00,,2013-05-05 09:42:00,
2013-05-05 02:52:00,54.0,47.0,29.72,NNW,347,0.0,0.0,77,0.00,,,0.00,,2013-05-05 09:52:00,
2013-05-05 03:02:00,54.0,47.0,29.72,NNW,347,0.0,0.0,77,0.00,,,0.00,,2013-05-05 10:02:00,
2013-05-05 03:12:00,53.0,46.0,29.71,NNW,347,0.0,0.0,77,0.00,,,0.00,,2013-05-05 10:12:00,
2013-05-05 03:22:00,53.0,46.0,29.71,NNW,347,0.0,0.0,77,0.00,,,0.00,,2013-05-05 10:22:00,
2013-05-05 03:32:00,53.0,46.0,29.71,NNW,347,0.0,0.0,78,0.00,,,0.00,,2013-05-05 10:32:00,
2013-05-05 03:42:00,53.0,46.0,29.71,NNW,347,0.0,0.0,78,0.00,,,0.00,,2013-05-05 10:42:00,
2013-05-05 03:52:00,53.0,46.0,29.71,NNW,347,0.0,0.0,78,0.00,,,0.00,,2013-05-05 10:52:00,
2013-05-05 04:01:00,53.0,47.0,29.71,NNW,347,0.0,0.0,79,0.00,,,0.00,,2013-05-05 11:01:00,
2013-05-05 04:11:00,53.0,47.0,29.71,NNW,347,0.0,0.0,79,0.00,,,0.00,,2013-05-05 11:11:00,
2013-05-05 04:21:00,52.0,46.0,29.71,NNW,347,0.0,0.0,79,0.00,,,0.00,,2013-05-05 11:21:00,
2013-05-05 04:32:00,52.0,46.0,29.71,NNW,347,0.0,0.0,80,0.00,,,0.00,,2013-05-05 11:32:00,
2013-05-05 04:41:00,52.0,46.0,29.71,NNW,347,0.0,0.0,80,0.00,,,0.00,,2013-05-05 11:41:00,
2013-05-05 04:51:00,52.0,46.0,29.71,NNW,347,0.0,0.0,80,0.00,,,0.00,,2013-05-05 11:51:00,
2013-05-05 05:01:00,52.0,46.0,29.71,NNW,347,0.0,0.0,80,0.00,,,0.00,,2013-05-05 12:01:00,
2013-05-05 05:11:00,52.0,46.0,29.71,NNW,347,0.0,0.0,80,0.00,,,0.00,,2013-05-05 12:11:00,
2013-05-05 05:21:00,52.0,46.0,29.71,NNW,347,0.0,0.0,81,0.00,,,0.00,,2013-05-05 12:21:00,
2013-05-05 05:31:00,52.0,46.0,29.71,NNW,347,0.0,0.0,81,0.00,,,0.00,,2013-05-05 12:31:00,
2013-05-05 05:42:00,52.0,46.0,29.71,NNW,347,0.0,0.0,81,0.00,,,0.00,,2013-05-05 12:42:00,
2013-05-05 05:52:00,51.0,46.0,29.71,NNW,347,0.0,0.0,82,0.00,,,0.00,,2013-05-05 12:52:00,
2013-05-05 06:01:00,52.0,47.0,29.70,NNW,347,0.0,0.0,82,0.00,,,0.00,,2013-05-05 13:01:00,
2013-05-05 06:11:00,52.0,47.0,29.70,NNW,347,0.0,0.0,82,0.00,,,0.00,,2013-05-05 13:11:00,
2013-05-05 06:21:00,53.0,48.0,29.71,NNW,347,0.0,0.0,82,0.00,,,0.00,,2013-05-05 13:21:00,
2013-05-05 06:32:00,54.0,48.0,29.71,SE,145,4.0,6.0,80,0.00,,,0.00,,2013-05-05 13:32:00,
2013-05-05 06:42:00,54.0,48.0,29.71,SE,145,4.0,6.0,80,0.00,,,0.00,,2013-05-05 13:42:00,
2013-05-05 06:52:00,54.0,48.0,29.71,SE,145,4.0,6.0,80,0.00,,,0.00,,2013-05-05 13:52:00,
2013-05-05 07:01:00,54.0,47.0,29.72,SSE,160,3.0,8.0,78,0.00,,,0.00,,2013-05-05 14:01:00,
2013-05-05 07:11:00,55.0,48.0,29.72,SE,134,8.0,8.0,77,0.00,,,0.00,,2013-05-05 14:11:00,
2013-05-05 07:21:00,55.0,48.0,29.72,SE,134,8.0,8.0,77,0.00,,,0.00,,2013-05-05 14:21:00,
2013-05-05 07:31:00,55.0,48.0,29.72,SE,146,8.0,11.0,77,0.00,,,0.00,,2013-05-05 14:31:00,
2013-05-05 07:41:00,55.0,48.0,29.72,SE,146,8.0,11.0,77,0.00,,,0.00,,2013-05-05 14:41:00,
2013-05-05 07:52:00,56.0,49.0,29.72,SE,138,9.0,9.0,76,0.00,,,0.00,,2013-05-05 14:52:00,
2013-05-05 08:01:00,56.0,48.0,29.72,ESE,118,9.0,10.0,74,0.00,,,0.00,,2013-05-05 15:01:00,
2013-05-05 08:11:00,56.0,48.0,29.72,ESE,118,9.0,10.0,74,0.00,,,0.00,,2013-05-05 15:11:00,
2013-05-05 08:21:00,57.0,49.0,29.73,SE,141,10.0,10.0,74,0.00,,,0.00,,2013-05-05 15:21:00,
2013-05-05 08:32:00,58.0,49.0,29.73,SE,139,11.0,11.0,72,0.00,,,0.00,,2013-05-05 15:32:00,
2013-05-05 08:42:00,58.0,49.0,29.73,SE,139,11.0,11.0,72,0.00,,,0.00,,2013-05-05 15:42:00,
2013-05-05 08:53:00,59.0,49.0,29.73,SSE,149,9.0,9.0,69,0.00,,,0.00,,2013-05-05 15:53:00,
2013-05-05 09:02:00,59.0,48.0,29.74,SE,128,8.0,10.0,68,0.00,,,0.00,,2013-05-05 16:02:00,
2013-05-05 09:12:00,59.0,48.0,29.74,SE,128,8.0,10.0,68,0.00,,,0.00,,2013-05-05 16:12:00,
2013-05-05 09:22:00,60.0,49.0,29.74,SE,124,12.0,12.0,66,0.00,,,0.00,,2013-05-05 16:22:00,
2013-05-05 09:32:00,61.0,49.0,29.75,SE,128,12.0,14.0,65,0.00,,,0.00,,2013-05-05 16:32:00,
2013-05-05 09:42:00,61.0,49.0,29.75,SE,128,12.0,14.0,65,0.00,,,0.00,,2013-05-05 16:42:00,
2013-05-05 09:52:00,61.0,49.0,29.75,SSE,148,9.0,15.0,64,0.00,,,0.00,,2013-05-05 16:52:00,
2013-05-05 10:01:00,62.0,49.0,29.75,ESE,110,12.0,12.0,62,0.00,,,0.00,,2013-05-05 17:01:00,
2013-05-05 10:12:00,62.0,49.0,29.75,ESE,110,12.0,12.0,62,0.00,,,0.00,,2013-05-05 17:12:00,
2013-05-05 10:23:00,62.0,49.0,29.75,ESE,110,12.0,12.0,62,0.00,,,0.00,,2013-05-05 17:23:00,
2013-05-05 10:31:00,63.0,49.0,29.74,SE,143,14.0,16.0,60,0.00,,,0.00,,2013-05-05 17:31:00,
2013-05-05 10:41:00,63.0,49.0,29.74,SE,143,14.0,16.0,60,0.00,,,0.00,,2013-05-05 17:41:00,
2013-05-05 10:52:00,64.0,49.0,29.75,ESE,105,9.0,9.0,58,0.00,,,0.00,,2013-05-05 17:52:00,
2013-05-05 11:01:00,64.0,49.0,29.75,SE,124,13.0,13.0,58,0.00,,,0.00,,2013-05-05 18:01:00,
2013-05-05 11:11:00,64.0,49.0,29.75,SE,124,13.0,13.0,58,0.00,,,0.00,,2013-05-05 18:11:00,
2013-05-05 11:21:00,65.0,49.0,29.76,ESE,103,16.0,16.0,57,0.00,,,0.00,,2013-05-05 18:21:00,
2013-05-05 11:31:00,65.0,49.0,29.70,ESE,120,12.0,17.0,56,0.00,,,0.00,,2013-05-05 18:31:00,
2013-05-05 11:41:00,65.0,49.0,29.70,ESE,120,12.0,17.0,56,0.00,,,0.00,,2013-05-05 18:41:00,
2013-05-05 11:52:00,65.0,49.0,29.77,ESE,108,16.0,16.0,56,0.00,,,0.00,,2013-05-05 18:52:00,
2013-05-05 12:01:00,66.0,49.0,29.74,ESE,110,15.0,15.0,55,0.00,,,0.00,,2013-05-05 19:01:00,
2013-05-05 12:11:00,66.0,49.0,29.74,ESE,110,15.0,15.0,55,0.00,,,0.00,,2013-05-05 19:11:00,
2013-05-05 12:21:00,67.0,50.0,29.76,SE,129,16.0,16.0,54,0.00,,,0.00,,2013-05-05 19:21:00,
2013-05-05 12:32:00,67.0,50.0,29.76,SE,129,16.0,16.0,54,0.00,,,0.00,,2013-05-05 19:32:00,
2013-05-05 12:41:00,67.0,50.0,29.76,SE,129,16.0,16.0,54,0.00,,,0.00,,2013-05-05 19:41:00,
2013-05-05 12:52:00,68.0,50.0,29.77,SE,139,13.0,13.0,52,0.00,,,0.00,,2013-05-05 19:52:00,
2013-05-05 13:01:00,67.0,49.0,29.76,SSE,159,11.0,13.0,52,0.00,,,0.00,,2013-05-05 20:01:00,
2013-05-05 13:11:00,67.0,49.0,29.76,SSE,159,11.0,13.0,52,0.00,,,0.00,,2013-05-05 20:11:00,
2013-05-05 13:21:00,68.0,50.0,29.76,ESE,111,12.0,16.0,52,0.00,,,0.00,,2013-05-05 20:21:00,
2013-05-05 13:31:00,69.0,50.0,29.77,SSE,160,12.0,12.0,51,0.00,,,0.00,,2013-05-05 20:31:00,
2013-05-05 13:41:00,69.0,50.0,29.77,SSE,160,12.0,12.0,51,0.00,,,0.00,,2013-05-05 20:41:00,
2013-05-05 13:52:00,69.0,50.0,29.77,SE,131,9.0,15.0,51,0.00,,,0.00,,2013-05-05 20:52:00,
2013-05-05 14:01:00,69.0,51.0,29.77,SE,127,9.0,15.0,52,0.00,,,0.00,,2013-05-05 21:01:00,
2013-05-05 14:11:00,69.0,51.0,29.77,SE,127,9.0,15.0,52,0.00,,,0.00,,2013-05-05 21:11:00,
2013-05-05 14:21:00,69.0,51.0,29.77,SSE,159,10.0,19.0,52,0.00,,,0.00,,2013-05-05 21:21:00,
2013-05-05 14:32:00,69.0,51.0,29.77,SSE,150,11.0,13.0,52,0.00,,,0.00,,2013-05-05 21:32:00,
2013-05-05 14:42:00,69.0,51.0,29.77,SSE,150,11.0,13.0,52,0.00,,,0.00,,2013-05-05 21:42:00,
2013-05-05 14:52:00,68.0,50.0,29.77,SE,139,12.0,12.0,52,0.00,,,0.00,,2013-05-05 21:52:00,
2013-05-05 15:02:00,68.0,50.0,29.77,South,173,9.0,9.0,52,0.00,,,0.00,,2013-05-05 22:02:00,
2013-05-05 15:12:00,68.0,50.0,29.77,South,173,9.0,9.0,52,0.00,,,0.00,,2013-05-05 22:12:00,
2013-05-05 15:22:00,68.0,50.0,29.77,ESE,122,11.0,15.0,52,0.00,,,0.00,,2013-05-05 22:22:00,
2013-05-05 15:33:00,68.0,50.0,29.77,ESE,115,11.0,11.0,53,0.00,,,0.00,,2013-05-05 22:33:00,
2013-05-05 15:41:00,68.0,50.0,29.77,ESE,115,11.0,11.0,53,0.00,,,0.00,,2013-05-05 22:41:00,
2013-05-05 15:52:00,68.0,50.0,29.77,SE,139,8.0,8.0,52,0.00,,,0.00,,2013-05-05 22:52:00,
2013-05-05 16:02:00,68.0,50.0,29.77,SE,125,12.0,13.0,52,0.00,,,0.00,,2013-05-05 23:02:00,
2013-05-05 16:11:00,68.0,50.0,29.77,SE,125,12.0,13.0,52,0.00,,,0.00,,2013-05-05 23:11:00,
2013-05-05 16:21:00,68.0,51.0,29.77,SE,141,10.0,12.0,54,0.00,,,0.00,,2013-05-05 23:21:00,
2013-05-05 16:31:00,68.0,51.0,29.77,SE,145,11.0,13.0,55,0.00,,,0.00,,2013-05-05 23:31:00,
2013-05-05 16:41:00,68.0,51.0,29.77,SE,145,11.0,13.0,55,0.00,,,0.00,,2013-05-05 23:41:00,
2013-05-05 16:52:00,67.0,50.0,29.77,SE,138,10.0,10.0,55,0.00,,,0.00,,2013-05-05 23:52:00,
2013-05-05 17:01:00,67.0,50.0,29.78,SE,132,11.0,11.0,55,0.00,,,0.00,,2013-05-06 00:01:00,
2013-05-05 17:11:00,67.0,50.0,29.78,SE,132,11.0,11.0,55,0.00,,,0.00,,2013-05-06 00:11:00,
2013-05-05 17:21:00,67.0,50.0,29.78,SE,132,11.0,11.0,55,0.00,,,0.00,,2013-05-06 00:21:00,
2013-05-05 17:31:00,67.0,51.0,29.78,SE,129,9.0,9.0,56,0.00,,,0.00,,2013-05-06 00:31:00,
2013-05-05 17:41:00,67.0,51.0,29.78,SE,129,9.0,9.0,56,0.00,,,0.00,,2013-05-06 00:41:00,
2013-05-05 17:51:00,67.0,51.0,29.78,SE,141,8.0,12.0,56,0.00,,,0.00,,2013-05-06 00:51:00,
2013-05-05 18:01:00,67.0,51.0,29.78,SE,141,11.0,11.0,57,0.00,,,0.00,,2013-05-06 01:01:00,
2013-05-05 18:11:00,67.0,51.0,29.78,SE,141,11.0,11.0,57,0.00,,,0.00,,2013-05-06 01:11:00,
2013-05-05 18:21:00,66.0,51.0,29.78,ESE,118,11.0,13.0,58,0.00,,,0.00,,2013-05-06 01:21:00,
2013-05-05 18:31:00,66.0,51.0,29.78,South,180,9.0,9.0,58,0.00,,,0.00,,2013-05-06 01:31:00,
2013-05-05 18:41:00,66.0,51.0,29.78,South,180,9.0,9.0,58,0.00,,,0.00,,2013-05-06 01:41:00,
2013-05-05 18:52:00,66.0,51.0,29.78,East,91,12.0,13.0,59,0.00,,,0.00,,2013-05-06 01:52:00,
2013-05-05 19:01:00,65.0,50.0,29.79,SSE,148,10.0,12.0,59,0.00,,,0.00,,2013-05-06 02:01:00,
2013-05-05 19:11:00,65.0,50.0,29.79,SSE,148,10.0,12.0,59,0.00,,,0.00,,2013-05-06 02:11:00,
2013-05-05 19:21:00,65.0,50.0,29.79,SE,145,12.0,12.0,59,0.00,,,0.00,,2013-05-06 02:21:00,
2013-05-05 19:31:00,65.0,50.0,29.79,SE,146,10.0,10.0,59,0.00,,,0.00,,2013-05-06 02:31:00,
2013-05-05 19:42:00,65.0,50.0,29.79,SE,146,10.0,10.0,59,0.00,,,0.00,,2013-05-06 02:42:00,
2013-05-05 19:51:00,65.0,51.0,29.80,SSE,155,9.0,9.0,60,0.00,,,0.00,,2013-05-06 02:51:00,
2013-05-05 20:01:00,64.0,50.0,29.81,ENE,73,9.0,9.0,61,0.00,,,0.00,,2013-05-06 03:01:00,
2013-05-05 20:11:00,64.0,50.0,29.81,ENE,73,9.0,9.0,61,0.00,,,0.00,,2013-05-06 03:11:00,
2013-05-05 20:21:00,64.0,50.0,29.81,SE,135,8.0,9.0,61,0.00,,,0.00,,2013-05-06 03:21:00,
2013-05-05 20:33:00,64.0,51.0,29.81,ESE,110,10.0,10.0,62,0.00,,,0.00,,2013-05-06 03:33:00,
2013-05-05 20:42:00,64.0,51.0,29.81,ESE,110,10.0,10.0,62,0.00,,,0.00,,2013-05-06 03:42:00,
2013-05-05 20:52:00,63.0,50.0,29.81,ESE,118,8.0,12.0,63,0.00,,,0.00,,2013-05-06 03:52:00,
2013-05-05 21:02:00,63.0,50.0,29.81,SSE,165,8.0,9.0,63,0.00,,,0.00,,2013-05-06 04:02:00,
2013-05-05 21:12:00,63.0,50.0,29.81,SSE,165,8.0,9.0,63,0.00,,,0.00,,2013-05-06 04:12:00,
2013-05-05 21:23:00,63.0,50.0,29.82,SSE,153,10.0,10.0,63,0.00,,,0.00,,2013-05-06 04:23:00,
2013-05-05 21:32:00,62.0,50.0,29.82,SE,135,8.0,14.0,64,0.00,,,0.00,,2013-05-06 04:32:00,
2013-05-05 21:42:00,62.0,50.0,29.82,SE,135,8.0,14.0,64,0.00,,,0.00,,2013-05-06 04:42:00,
2013-05-05 21:52:00,62.0,50.0,29.82,SE,135,8.0,14.0,64,0.00,,,0.00,,2013-05-06 04:52:00,
2013-05-05 22:02:00,62.0,50.0,29.82,ENE,66,10.0,11.0,65,0.00,,,0.00,,2013-05-06 05:02:00,
2013-05-05 22:12:00,62.0,50.0,29.82,ENE,66,10.0,11.0,65,0.00,,,0.00,,2013-05-06 05:12:00,
2013-05-05 22:22:00,62.0,50.0,29.83,ESE,114,9.0,9.0,65,0.00,,,0.00,,2013-05-06 05:22:00,
2013-05-05 22:32:00,61.0,49.0,29.83,SSE,150,11.0,11.0,65,0.00,,,0.00,,2013-05-06 05:32:00,
2013-05-05 22:42:00,61.0,49.0,29.83,SSE,150,11.0,11.0,65,0.00,,,0.00,,2013-05-06 05:42:00,
2013-05-05 22:52:00,61.0,49.0,29.83,SE,141,9.0,10.0,65,0.00,,,0.00,,2013-05-06 05:52:00,
2013-05-05 23:02:00,61.0,49.0,29.83,SE,141,9.0,10.0,65,0.00,,,0.00,,2013-05-06 06:02:00,
2013-05-05 23:12:00,61.0,50.0,29.84,ESE,114,5.0,6.0,66,0.00,,,0.00,,2013-05-06 06:12:00,
2013-05-05 23:21:00,61.0,50.0,29.84,ESE,114,5.0,6.0,66,0.00,,,0.00,,2013-05-06 06:21:00,
2013-05-05 23:31:00,61.0,50.0,29.85,SE,136,5.0,9.0,66,0.00,,,0.00,,2013-05-06 06:31:00,
2013-05-05 23:41:00,61.0,50.0,29.85,SE,136,5.0,9.0,66,0.00,,,0.00,,2013-05-06 06:41:00,
2013-05-05 23:51:00,61.0,50.0,29.85,East,101,5.0,6.0,66,0.00,,,0.00,,2013-05-06 06:51:00,